Погода в Эльхотово

Россия / Республика Северная Осетия — Алания     43°20′28″N   44°12′18″E
темп.,
°C
ветер,
м/с
пор.,
м/с
влажн.,
%
обл.,
%
осадки,
мм/ч
давл.,
гПа
погр.,
м
16 мая, вс
вс1600:00+17ю2277100 0.1 101113
03:00+15ююз117314 0.1 101111
06:00+17ююв11715 0.0 101028
09:00+23св11532 0.0 1009393
12:00+28ссв22420 0.0 10071166
15:00+28всв22454 0.0 10051433
18:00+25всв35655 0.0 1004122
21:00+20ююз117594 0.1 100511
17 мая, пн
пн1700:00+18ю1166100 0.0 100511
03:00+17юв11555 0.0 100511
06:00+17вюв11580 0.0 100517
09:00+24всв22432 0.0 1004293
12:00+28ссз434191 0.0 1004921
15:00+27ссз3347100 0.0 10041083
18:00+19юз71082100 1.8 1006348
21:00+16юз4679100 4.0 1007100
18 мая, вт
вт1800:00+15юз328576 0.0 100726
03:00+16зюз2284100 0.0 100835
06:00+16сз1692100 1.4 1010396
09:00+17сз2481100 1.8 1011655
12:00+20ссз346794 0.1 10111187
15:00+20с236193 0.5 10111242
18:00+18сз2379100 0.7 101281
21:00+14юз018863 0.7 101311
19 мая, ср
ср1900:00+13ююз1190100 0.0 101312
03:00+12ю12880 0.0 101312
06:00+14ююв22819 0.0 101380
09:00+19всв2367100 0.0 1013649
12:00+23ссв225895 0.1 10131430
15:00+23ссв335938 0.8 10141250
18:00+18сз2383100 1.3 101644
21:00+16зсз229588 1.6 101860
20 мая, чт
чт2000:00+14ссз119724 0.0 101810
03:00+13с119761 0.0 101811
06:00+15юв119141 0.0 1019118
09:00+19в346959 0.0 1016987
12:00+23в445615 0.0 10141286
15:00+25в44530 0.0 10121364
18:00+23всв47640 0.0 1012294
21:00+16в227511 0.0 101323